Twentynine Palms, CA

9:04 AM PDT on April 21, 2018 (GMT -0700)
Twentynine Palms Expeditionary Air Field

Weather History for KNXP - April, 2014

Change the Weather History Date:

Wednesday, April 16, 2014

  Actual Average Record
Temperature  
Mean Temperature 76 °F -  
Max Temperature 90 °F 75 °F 91 °F (2006)
Min Temperature 63 °F 50 °F 44 °F (1998)
Cooling Degree Days 11    
Growing Degree Days 26 (Base 50)    
Moisture  
Dew Point 26 °F    
Average Humidity 17    
Maximum Humidity 26    
Minimum Humidity 8    
Precipitation  
Precipitation 0.00 in - - ()
Sea Level Pressure  
Sea Level Pressure 29.74 in    
Wind  
Wind Speed 8 mph (WNW)    
Max Wind Speed 15 mph    
Max Gust Speed 20 mph    
Visibility 10 miles    
Events      
Averages and records for this station are not official NWS values.
T = Trace of Precipitation, MM = Missing Value Source: NWS Daily Summary

Daily Weather History Graph

Daily Weather History Graph

Search for Another Location

Airport or City:

Astronomy

Apr. 16, 2014 Rise Set
Actual Time 6:12 AM PDT 7:17 PM PDT
Civil Twilight 5:46 AM PDT 7:43 PM PDT
Nautical Twilight 5:15 AM PDT 8:13 PM PDT
Astronomical Twilight 4:43 AM PDT 8:45 PM PDT
Moon 9:01 PM PDT (4/16) 7:05 AM PDT (4/16)
Length of Visible Light 13h 56m
Length of Day
13h 05m
Full, 98% of the Moon is Illuminated
Apr 16
Full
Apr 22
Last Quarter
Apr 28
New
May 6
First Quarter
May 14
Full

Hourly Weather History & Observations

Time (PDT) Temp. Dew Point Humidity Pressure Visibility Wind Dir Wind Speed Gust Speed Precip Events Conditions
12:56 AM 70.0 °F 30.0 °F 23% 29.78 in 10.0 mi NW 6.9 mph - N/A   Clear
1:56 AM 69.1 °F 30.0 °F 23% 29.77 in 10.0 mi WNW 5.8 mph - N/A   Clear
2:56 AM 64.9 °F 28.9 °F 26% 29.76 in 10.0 mi SW 9.2 mph - N/A   Clear
3:56 AM 64.0 °F 26.1 °F 24% 29.76 in 10.0 mi WNW 6.9 mph - N/A   Clear
4:56 AM 63.0 °F 26.1 °F 25% 29.75 in 10.0 mi West 11.5 mph - N/A   Clear
5:56 AM 63.0 °F 26.1 °F 25% 29.77 in 10.0 mi NW 3.5 mph - N/A   Clear
6:56 AM 64.9 °F 27.0 °F 24% 29.78 in 10.0 mi WNW 9.2 mph - N/A   Clear
7:56 AM 68.0 °F 27.0 °F 21% 29.79 in 10.0 mi WNW 6.9 mph - N/A   Partly Cloudy
8:56 AM 73.0 °F 26.1 °F 17% 29.79 in 10.0 mi NW 9.2 mph - N/A   Clear
9:56 AM 78.1 °F 24.1 °F 14% 29.78 in 10.0 mi NW 15.0 mph - N/A   Partly Cloudy
10:56 AM 81.0 °F 25.0 °F 13% 29.78 in 10.0 mi NW 10.4 mph - N/A   Partly Cloudy
11:56 AM 84.0 °F 24.1 °F 11% 29.76 in 10.0 mi NNW 10.4 mph - N/A   Partly Cloudy
12:56 PM 84.9 °F 19.9 °F 9% 29.74 in 10.0 mi West 6.9 mph - N/A   Partly Cloudy
1:56 PM 87.1 °F 23.0 °F 10% 29.72 in 10.0 mi WNW 9.2 mph - N/A   Partly Cloudy
2:56 PM 87.1 °F 19.9 °F 8% 29.70 in 10.0 mi Variable 3.5 mph - N/A   Partly Cloudy
3:56 PM 89.1 °F 19.0 °F 8% 29.68 in 10.0 mi West 4.6 mph - N/A   Partly Cloudy
4:56 PM 89.1 °F 19.9 °F 8% 29.67 in 10.0 mi WSW 4.6 mph - N/A   Clear
5:56 PM 88.0 °F 19.0 °F 8% 29.66 in 10.0 mi Calm Calm - N/A   Clear
6:56 PM 84.9 °F 26.1 °F 12% 29.67 in 10.0 mi SW 13.8 mph - N/A   Clear
7:56 PM 81.0 °F 28.9 °F 15% 29.69 in 10.0 mi SW 9.2 mph - N/A   Clear
8:56 PM 79.0 °F 28.9 °F 16% 29.72 in 10.0 mi ENE 4.6 mph - N/A   Clear
9:56 PM 77.0 °F 28.9 °F 17% 29.74 in 10.0 mi Calm Calm - N/A   Clear
10:56 PM 75.9 °F 32.0 °F 20% 29.75 in 10.0 mi NW 15.0 mph 19.6 mph N/A   Clear
11:56 PM 73.9 °F 35.1 °F 24% 29.77 in 10.0 mi WNW 13.8 mph - N/A   Clear